Flag for Germany Weather for the Past 2 Weeks in Langenfeld (Rheinland), North Rhine-Westphalia, Germany

Now
48 °F

Partly sunny.


Feels Like: 41 °F
Forecast: 38 / 43 °F
Wind: 23 mph from Southwest

Location: Duesseldorf

Current Time: Feb 9, 2016 at 5:29:50 PM

Latest Report: Feb 9, 2016 at 4:50 PM


Visibility: N/A

Pressure: 28.82 "Hg

Humidity: 76%

Dew point: 41 °F

Location of Langenfeld (Rheinland)Location

Historic Weather in Langenfeld (Rheinland) — Graph

°F

Langenfeld (Rheinland) Temperature Yesterday

Maximum temperature yesterday: 50 °F (at 7:50 AM)
Minimum temperature yesterday: 41 °F (at 3:20 PM)
Average temperature yesterday: 47 °F

High & Low Weather Summary for the Past Weeks

 TemperatureHumidityPressure
High57 °F (Jan 25, 4:20 PM)100% (Jan 28, 4:20 AM)30.33 "Hg (Jan 28, 4:20 AM)
Low36 °F (Jan 28, 10:50 PM)57% (Jan 28, 2:50 PM)28.77 "Hg (Feb 9, 4:20 PM)
Average47 °F82%29.93 "Hg
* Reported Jan 25 4:20 PM — Feb 9 4:20 PM, Langenfeld (Rheinland), Weather by CustomWeather, © 2016

Note: Actual official high and low records may vary slightly from our data, if they occured in-between our weather recording intervals... More about our weather records

Advertising

Langenfeld (Rheinland) Weather History for the Previous 24 Hours

 ConditionsComfort  
Time TempWeatherWind HumidityBarometerVisibility
4:20 PM
Tue, Feb 9
50 °FScattered clouds.15 mph76%28.77 "HgN/A
3:20 PM48 °FBroken clouds.18 mph87%28.82 "HgN/A
2:50 PM48 °FSprinkles. Broken clouds.18 mph87%28.85 "HgN/A
2:20 PM46 °FSprinkles. Partly sunny.18 mph87%28.88 "HgN/A
1:50 PM45 °FMostly cloudy.15 mph87%28.94 "HgN/A
1:20 PM45 °FLight rain. Partly sunny.16 mph87%28.97 "HgN/A
12:50 PM43 °FRain. Partly sunny.14 mph93%29.06 "Hg4 mi
12:20 PM43 °FRain. Partly sunny.14 mph93%29.12 "Hg5 mi
11:50 AM43 °FRain. Overcast.10 mph93%29.18 "Hg5 mi
11:20 AM43 °FRain. Overcast.12 mph87%29.21 "HgN/A
10:50 AM45 °FLight rain. Overcast.14 mph81%29.27 "HgN/A
10:20 AM45 °FLight rain. Partly sunny.15 mph76%29.30 "HgN/A
9:50 AM45 °FPartly sunny.12 mph76%29.33 "HgN/A
9:20 AM45 °FPartly sunny.13 mph76%29.33 "HgN/A
8:50 AM45 °FPartly sunny.15 mph76%29.36 "HgN/A
8:20 AM45 °FPassing clouds.17 mph76%29.39 "HgN/A
7:50 AM45 °FPartly cloudy.16 mph76%29.39 "HgN/A
7:20 AM43 °FPassing clouds.16 mph81%29.39 "HgN/A
6:50 AM43 °FSprinkles. Partly cloudy.15 mph87%29.42 "HgN/A
6:20 AM43 °FSprinkles. Partly cloudy.9 mph87%29.42 "HgN/A
5:50 AM43 °FSprinkles. Partly cloudy.15 mph87%29.45 "HgN/A
5:20 AM45 °FSprinkles. Passing clouds.23 mph76%29.45 "HgN/A
4:50 AM45 °FPassing clouds.17 mph71%29.45 "HgN/A
4:20 AM45 °FPassing clouds.28 mph71%29.45 "HgN/A
3:50 AM46 °FPartly cloudy.26 mph66%29.45 "HgN/A
3:20 AM46 °FPartly cloudy.30 mph66%29.47 "HgN/A
2:50 AM46 °FSprinkles. Partly cloudy.26 mph66%29.45 "HgN/A
2:20 AM45 °FPassing clouds.29 mph71%29.45 "HgN/A
1:50 AM46 °FPassing clouds.30 mph66%29.45 "HgN/A
1:20 AM46 °FPartly cloudy.30 mph66%29.45 "HgN/A
12:50 AM46 °FPartly cloudy.31 mph66%29.45 "HgN/A
12:20 AM46 °FPartly cloudy.31 mph66%29.42 "HgN/A
11:50 PM
Mon, Feb 8
46 °FPartly cloudy.33 mph66%29.42 "HgN/A
11:20 PM46 °FPassing clouds.31 mph66%29.39 "HgN/A
10:50 PM48 °FPassing clouds.31 mph66%29.39 "HgN/A
10:20 PM46 °FLight rain. Partly cloudy.32 mph71%29.39 "HgN/A
9:50 PM46 °FPartly cloudy.29 mph71%29.36 "HgN/A
9:20 PM46 °FRain. Partly cloudy.38 mph76%29.36 "HgN/A
8:50 PM46 °FLight rain. Mostly cloudy.41 mph71%29.36 "HgN/A
8:20 PM46 °FLight rain. Partly cloudy.31 mph71%29.36 "HgN/A
7:50 PM46 °FLight rain. Passing clouds.30 mph71%29.33 "HgN/A
7:20 PM46 °FPartly cloudy.35 mph71%29.33 "HgN/A
6:50 PM46 °FLight rain. Partly cloudy.29 mph71%29.33 "HgN/A
6:20 PM46 °FSprinkles. Passing clouds.32 mph71%29.33 "HgN/A
5:50 PM48 °FPassing clouds.28 mph62%29.30 "HgN/A
5:20 PM46 °FPartly sunny.28 mph71%29.30 "HgN/A
Weather by CustomWeather, © 2016

See weather overviewHow to use our weather pages